Location: Unspecified
(0.0000°N, 0.0000°E)
Time: 00:11:13
(UTC+00:00)

Courier 1B - Visible Passes

Search period start: 13 December 2018 00:00
Search period end: 23 December 2018 00:00
Orbit: 963 x 1209 km, 28.3° (Epoch: 12 December)

Date Brightness Start Highest point End Pass type
(mag) Time Alt. Az. Time Alt. Az. Time Alt. Az.
13 Dec 9.7 04:24:20 10° N 04:26:15 11° NNE 04:28:09 10° NE visible
13 Dec 8.0 19:40:27 10° WSW 19:48:16 72° NNW 19:50:25 50° NE visible
13 Dec 10.3 21:37:02 10° WNW 21:37:20 11° WNW 21:37:20 11° WNW visible
14 Dec 8.9 05:21:40 10° NNW 05:27:11 27° NNE 05:32:35 10° E visible
14 Dec 8.0 18:46:27 10° WSW 18:54:15 86° SSE 19:00:06 20° ENE visible
14 Dec 9.3 20:42:05 10° W 20:47:01 28° NW 20:47:01 28° NW visible
15 Dec 9.2 04:29:38 14° NNW 04:33:16 20° NNE 04:37:57 10° ENE visible
15 Dec 8.6 19:47:29 10° W 19:54:45 42° NNW 19:56:42 36° N visible
16 Dec 9.5 03:39:21 15° NNE 03:39:21 15° NNE 03:42:57 10° ENE visible
16 Dec 8.1 05:27:22 10° NW 05:33:51 51° NNE 05:40:07 10° ESE visible
16 Dec 8.3 18:53:09 10° WSW 19:00:42 56° NNW 19:06:24 19° NE visible
16 Dec 9.8 20:50:25 10° WNW 20:53:18 17° NW 20:53:18 17° NW visible
17 Dec 8.5 04:35:57 19° NNW 04:40:02 37° NNE 04:46:00 10° E visible
17 Dec 9.2 19:55:16 10° WNW 20:01:25 25° NNW 20:03:00 23° N visible
18 Dec 8.8 03:45:40 27° NNE 03:46:08 27° NNE 03:51:39 10° E visible
18 Dec 9.0 19:00:30 10° W 19:07:16 33° NNW 19:12:41 15° NNE visible
19 Dec 9.8 02:55:22 15° ENE 02:55:22 15° ENE 02:57:01 10° ENE visible
19 Dec 7.7 04:42:17 24° NW 04:46:38 68° NNE 04:53:10 10° ESE visible
19 Dec 9.7 20:04:08 10° NW 20:08:20 15° NNW 20:09:15 15° NNW visible
20 Dec 8.0 03:51:59 47° N 03:52:49 49° NNE 03:59:15 10° ESE visible
20 Dec 9.6 19:08:44 10° WNW 19:14:03 20° NNW 19:18:55 11° NNE visible
21 Dec 9.2 03:01:40 26° ENE 03:01:40 26° ENE 03:05:06 10° E visible
21 Dec 7.7 04:48:34 22° WNW 04:53:08 66° SSW 04:59:43 10° SE visible
21 Dec 9.3 18:13:47 10° W 18:19:51 26° NNW 18:26:06 10° NNE visible
22 Dec 7.5 03:58:14 66° WNW 03:59:21 89° NNE 04:06:07 10° ESE visible
22 Dec 9.9 19:18:28 10° NW 19:21:08 12° NNW 19:23:50 10° N visible
